Theta_e
345 344 343 342 341 338 337 337 336 336 335 334 334 334 334 334 334 335 334 336 336 337 338 336 337 338 339 341 343 343 339 337 335 330 328 326 326 327 326 326 325 324 325
343 344 344 342 341 339 337 336 336 335 334 333 333 332 331 331 332 333 332 332 334 334 335 332 333 334 336 337 339 339 340 340 336 331 325 323 321 323 323 323 322 321 321
345 345 344 342 341 339 337 336 335 334 333 332 332 331 329 329 330 330 330 330 330 330 331 332 331 334 333 334 334 335 335 336 335 331 326 323 320 321 320 320 319 319 319
345 346 345 343 342 339 338 337 336 334 333 332 332 331 329 327 327 326 326 326 326 327 328 328 329 330 333 334 332 332 332 331 330 328 324 322 321 320 320 318 317 315 315
347 347 346 345 342 340 339 338 336 334 332 331 330 330 330 328 326 327 326 321 323 324 324 326 326 327 328 329 332 333 333 331 328 326 324 322 321 320 320 319 317 316 315
348 348 347 345 342 340 340 338 336 334 332 330 329 330 329 328 326 325 324 319 320 321 320 320 324 325 326 326 326 326 328 331 331 329 327 326 324 322 320 319 317 318 319
344 348 347 345 343 340 339 337 337 334 331 329 328 329 330 327 326 325 323 321 319 316 316 316 316 319 322 322 323 324 324 325 327 328 327 326 326 325 323 319 319 319 319
342 345 347 343 344 341 336 335 334 332 330 328 327 328 328 325 325 324 323 321 320 319 318 317 317 314 314 319 319 319 318 317 317 318 319 320 322 323 322 322 321 319 317
337 338 341 342 344 339 337 335 333 331 329 326 325 326 326 324 324 323 322 320 319 319 319 318 318 318 315 310 316 317 315 311 306 306 306 306 307 313 317 320 320 321 321
336 338 339 339 339 339 338 336 333 332 328 325 324 323 324 325 323 322 320 319 318 317 317 319 319 318 319 317 316 315 314 314 313 311 311 308 306 306 305 307 311 314 316
337 337 335 334 338 339 339 337 333 330 325 323 322 321 320 320 323 324 320 317 317 316 315 313 314 318 317 312 310 313 316 316 313 313 311 310 310 309 309 310 307 311 314
332 331 330 331 331 333 336 336 333 330 325 320 320 319 318 318 320 323 320 317 319 315 312 311 311 307 307 306 306 307 308 309 311 313 313 311 308 308 309 309 309 308 307
327 326 328 330 332 334 335 333 331 328 325 320 320 319 317 318 319 321 322 320 317 313 307 307 307 306 306 307 306 306 308 309 310 310 310 308 307 307 307 309 310 308 308
325 324 325 327 329 331 331 330 328 324 324 321 321 319 316 315 314 314 314 313 311 308 307 304 306 307 308 308 309 308 308 307 307 307 307 307 306 306 306 306 306 306 306
323 323 323 324 326 326 327 326 327 326 325 324 321 319 315 312 313 314 312 311 309 308 306 306 308 311 312 311 310 309 308 308 307 307 306 306 305 305 304 304 304 304 304
321 321 320 320 321 321 322 321 320 322 322 321 321 319 316 313 312 311 311 310 307 307 309 311 312 310 308 307 307 307 307 306 305 305 305 305 305 304 304 304 304 304 304
320 318 318 319 319 318 317 318 315 315 317 317 317 316 314 313 312 312 311 308 306 307 310 312 310 309 308 307 307 306 306 306 304 305 305 305 304 304 304 304 304 304 304
320 319 318 318 320 320 321 321 320 319 318 314 313 313 312 312 312 310 309 308 307 306 310 311 309 309 308 308 307 307 306 306 306 305 305 304 304 304 304 304 304 304 304
320 319 319 319 317 315 316 317 317 316 315 313 310 310 312 310 309 306 306 307 309 309 310 310 310 309 309 308 308 307 306 306 305 306 305 305 304 304 304 304 304 303 303
318 316 315 313 311 310 310 309 309 308 308 309 310 309 307 306 306 306 305 305 307 308 307 308 308 309 309 309 308 307 307 306 306 306 306 305 305 305 304 304 304 304 304
317 315 314 314 313 312 311 310 310 310 310 309 308 306 305 307 305 304 305 305 306 306 307 307 307 308 308 308 307 307 307 306 306 306 306 306 306 305 305 305 305 305 305
318 317 316 316 315 315 314 313 313 312 312 311 310 307 304 305 307 307 306 307 307 306 305 306 306 307 306 306 306 306 305 305 305 304 303 304 305 305 305 305 305 305 305
320 319 319 318 318 317 317 316 316 316 315 315 314 312 308 307 307 306 306 306 306 305 304 304 304 303 302 302 302 301 302 302 301 301 301 302 304 306 305 306 306 306 306
320 319 319 319 318 316 314 314 315 313 314 314 312 311 310 309 309 306 305 305 304 303 303 302 301 300 300 298 298 296 298 299 297 296 296 298 299 300 300 301 301 302 303
310 312 313 312 311 312 312 313 313 313 312 311 311 311 310 308 307 306 305 304 303 301 300 298 297 298 298 298 297 297 296 295 291 289 291 291 291 291 291 292 293 294 296
311 311 311 311 313 314 314 315 312 312 311 310 309 308 307 305 305 303 303 302 300 299 298 296 297 298 297 294 294 292 288 287 286 286 287 289 289 289 289 290 290 290 291
Wind_Speed
14 12 11 10 10 11 11 10 9 8 9 10 10 11 11 10 11 11 11 10 11 11 10 10 9 8 6 4 3 0 1 3 7 6 12 11 11 10 11 11 11 12 12
17 13 11 10 10 10 10 9 10 10 10 11 11 13 12 13 13 13 12 11 12 13 12 12 12 8 9 8 6 5 1 4 5 8 12 7 11 10 10 10 11 12 13
16 15 15 12 10 9 9 9 10 10 10 10 11 12 13 13 14 13 14 14 14 14 14 14 13 13 13 11 9 7 5 5 5 10 8 8 9 9 10 11 10 9 9
14 14 14 14 13 12 11 9 10 9 9 9 9 9 12 13 14 14 13 13 13 13 14 15 16 15 13 11 12 11 9 8 9 12 12 9 8 7 6 8 8 8 10
12 12 12 12 12 11 10 10 10 9 8 9 9 8 9 10 10 11 12 12 12 14 15 15 16 17 17 15 12 11 10 10 11 11 9 8 7 4 3 3 5 5 6
11 11 11 12 12 11 10 11 10 9 8 8 8 8 8 8 10 11 12 12 13 12 13 14 14 15 16 16 16 16 13 10 9 9 8 7 5 4 3 3 5 2 1
9 7 8 10 11 12 11 11 11 10 9 8 7 7 8 8 9 9 11 11 12 14 13 13 14 14 14 13 15 16 16 15 13 11 10 8 5 4 2 3 2 1 1
7 1 4 8 9 11 12 10 12 11 10 8 7 8 8 9 8 8 8 10 11 11 12 12 12 14 14 12 13 15 16 17 15 13 12 9 8 6 4 2 2 0 2
7 4 2 3 8 12 14 12 12 13 11 10 8 7 8 9 7 6 6 7 9 10 10 9 9 11 11 11 11 12 12 13 14 14 15 13 11 8 5 2 2 4 1
6 5 2 2 8 11 18 18 15 16 14 14 11 9 7 6 6 5 5 6 7 7 8 9 6 6 7 7 7 7 7 6 6 6 8 10 11 11 11 10 6 6 6
4 3 3 5 8 11 18 20 19 18 15 15 14 11 7 6 6 7 5 5 6 6 5 5 6 7 7 7 7 4 2 2 2 3 4 5 6 8 8 9 11 9 7
7 4 3 3 4 8 13 20 21 21 18 14 14 11 8 6 5 9 7 6 5 6 7 8 9 8 8 7 9 9 6 2 0 0 1 4 5 6 6 6 7 6 5
13 10 6 4 5 9 14 19 21 20 19 14 13 10 7 6 6 6 8 7 7 6 8 8 10 8 8 9 9 10 10 8 6 6 5 5 6 6 6 6 5 6 6
12 9 8 7 7 9 12 18 22 16 17 15 12 9 8 7 8 8 9 9 9 9 8 8 8 5 5 4 5 7 7 6 7 6 6 6 6 7 7 6 7 8 9
9 9 8 8 8 12 14 14 15 16 15 15 13 10 11 8 9 9 9 9 8 8 8 7 5 4 2 3 4 5 5 5 6 6 6 7 8 7 7 7 8 8 9
9 7 7 10 11 13 15 15 12 12 11 10 9 10 9 9 10 10 9 9 9 9 6 5 6 6 5 5 5 5 5 6 7 7 7 7 6 6 8 8 8 9 9
9 11 9 11 12 13 11 11 14 13 11 10 9 9 8 11 10 8 8 8 8 7 4 6 8 5 5 4 4 4 4 4 6 7 8 7 6 6 8 10 8 7 9
8 12 11 10 10 10 10 10 10 11 11 9 9 9 10 9 8 7 7 7 6 5 5 8 7 4 3 2 1 1 2 2 4 5 6 7 7 7 8 9 7 7 9
10 10 10 11 10 10 10 11 11 11 10 10 9 8 10 9 8 7 7 5 7 6 6 5 4 3 3 2 1 2 3 3 5 5 6 6 6 7 8 8 8 8 10
10 13 13 12 12 11 11 12 11 11 11 11 10 10 10 9 7 7 7 6 4 5 4 4 3 3 4 4 4 4 4 4 5 6 6 7 8 8 9 10 11 12 12
12 13 12 11 11 11 11 10 11 9 9 9 9 10 12 8 8 8 8 6 5 4 4 4 4 5 5 6 6 6 7 7 6 7 8 9 9 11 12 13 14 14 14
14 14 14 12 12 12 11 11 9 9 8 8 8 8 10 8 7 9 9 9 6 5 5 7 7 7 6 5 5 5 5 6 6 6 7 8 11 11 12 14 15 16 17
15 14 13 13 13 12 12 11 10 10 9 8 9 10 12 11 9 9 8 6 5 6 9 7 6 5 6 5 5 4 2 3 5 7 7 8 10 11 12 14 16 17 18
15 15 16 16 15 13 12 11 10 10 7 5 6 8 12 12 12 12 12 10 8 6 5 4 4 5 4 2 1 1 3 4 5 6 8 9 11 12 13 14 16 16 17
14 15 14 14 13 14 12 11 10 8 5 4 4 5 7 9 10 14 13 11 8 7 6 6 6 5 3 2 1 3 6 9 9 9 6 7 8 9 9 10 11 13 13
17 15 15 14 11 11 13 11 9 9 7 8 8 7 7 8 10 8 9 9 9 8 7 6 5 4 2 1 4 6 7 7 6 5 3 4 5 6 7 8 9 10 10
Wind_Direction
169 164 162 157 131 122 111 107 98 87 69 63 63 61 61 64 64 67 64 56 59 57 55 60 57 50 43 19 1 18 158 138 118 111 128 124 108 112 101 97 92 84 78
173 161 155 151 137 126 114 110 99 89 75 71 71 74 70 69 67 67 69 63 63 59 53 50 45 43 52 46 46 44 84 99 131 124 135 112 110 114 107 101 95 96 90
166 164 158 158 141 132 127 123 105 93 85 77 77 77 72 72 74 71 71 68 66 64 62 56 48 48 45 48 48 52 75 94 109 149 133 133 118 116 106 97 92 91 89
177 170 171 166 159 154 148 138 118 111 103 95 84 82 80 77 83 80 74 73 71 65 62 60 56 54 48 51 59 63 70 79 95 118 114 117 116 124 119 110 90 82 79
183 181 186 176 162 157 151 147 135 128 120 116 110 97 90 89 84 78 75 72 75 72 67 64 63 64 62 65 64 60 67 75 88 99 100 110 118 133 137 135 119 103 79
199 203 190 178 167 165 172 155 145 138 129 127 117 112 103 96 92 82 90 82 77 72 68 71 67 65 62 64 67 70 77 71 78 88 92 91 99 109 137 138 147 167 115
193 225 211 190 174 176 181 168 153 145 147 147 131 119 111 102 101 95 92 92 86 81 76 70 69 67 66 68 69 73 72 75 81 79 76 63 63 58 100 130 157 65 83
140 224 241 208 183 186 182 183 162 154 153 151 136 125 119 113 106 95 94 98 93 86 81 77 72 67 65 69 73 75 73 72 70 72 71 65 56 48 53 56 175 98 120
165 199 133 223 202 189 185 185 177 154 149 150 144 137 140 135 124 104 100 96 97 92 86 87 82 75 67 68 76 81 83 81 76 78 73 66 59 53 47 342 350 284 288
188 197 189 203 219 197 191 184 179 171 159 155 150 143 142 154 156 139 119 113 108 100 90 87 94 97 68 72 76 82 94 97 94 87 71 62 57 51 47 46 7 319 317
178 163 176 197 200 201 197 186 175 170 155 155 152 150 152 146 173 183 158 134 124 112 103 91 86 88 93 81 77 70 102 133 102 98 80 62 55 46 38 31 33 23 354
144 178 190 203 228 213 204 193 180 173 164 155 148 140 144 135 132 171 175 159 135 135 129 114 111 99 92 81 65 53 55 65 8 47 65 45 23 20 17 12 11 16 20
155 166 170 159 180 180 194 186 175 173 167 161 154 148 150 143 126 154 180 168 140 142 130 122 126 111 91 71 69 62 61 59 55 55 42 22 4 339 340 333 334 340 326
144 135 135 133 147 161 180 187 177 165 170 168 163 159 153 142 144 141 144 150 148 142 136 134 138 125 109 82 60 51 51 48 45 36 28 14 2 356 348 344 330 328 323
124 132 133 138 139 143 149 161 172 170 178 174 173 170 164 160 166 158 163 157 152 147 146 139 134 118 110 69 48 42 39 37 29 16 358 349 345 347 353 352 346 333 320
141 148 150 145 139 137 135 131 131 143 153 164 167 171 165 164 156 150 154 155 155 151 147 153 138 127 96 73 57 56 58 46 25 6 355 347 340 342 342 337 337 336 328
170 160 161 153 151 148 142 137 126 119 133 140 148 156 156 157 157 158 161 156 154 156 167 167 155 135 118 86 68 59 58 38 20 12 10 5 348 337 337 332 325 329 330
173 178 166 164 163 160 154 149 152 154 151 138 146 152 159 161 162 167 164 159 162 164 162 154 157 152 143 113 55 26 351 336 333 345 353 353 346 333 329 339 323 321 318
167 164 161 156 152 151 148 149 147 144 144 144 146 153 163 164 167 168 166 177 168 163 159 167 178 191 204 217 242 259 277 292 295 304 309 315 324 321 320 323 314 300 301
166 164 154 151 146 140 137 137 139 139 139 145 156 159 169 165 176 177 170 172 172 164 163 173 197 213 221 226 237 251 268 276 278 281 285 292 296 299 302 304 307 308 309
173 172 165 157 157 159 156 155 150 150 147 152 161 169 173 161 159 172 180 190 198 211 218 224 239 233 232 234 242 250 259 267 273 280 286 288 289 289 289 288 290 294 297
186 182 181 178 175 175 175 179 177 178 181 186 181 184 185 181 183 186 190 196 206 231 250 248 248 240 238 238 245 253 257 266 278 287 293 297 296 293 292 290 290 291 293
194 190 192 195 193 191 197 197 203 208 213 218 217 209 214 209 209 211 211 213 220 236 251 237 211 217 237 247 253 259 281 289 300 305 308 310 303 301 300 297 296 295 295
201 212 207 211 200 206 208 203 213 220 217 222 208 213 220 220 215 211 216 230 233 226 203 179 151 161 179 173 199 308 299 308 322 315 310 304 303 302 302 299 297 298 296
209 203 198 205 203 208 207 200 207 203 195 207 201 196 190 185 191 207 209 203 191 171 157 146 137 137 141 154 207 290 305 315 316 315 315 309 307 312 312 309 309 308 306
205 197 196 203 214 209 206 203 194 183 186 203 203 175 175 177 184 184 173 161 155 153 149 146 155 167 181 236 273 294 310 319 326 333 344 325 324 322 326 319 320 319 320